This is the latest recevied weather packets stored in our database for station/object OE9GTV. If no packets are shown the sender has not sent any weather packets the latest 10 day(s).
| Time | Temp. | Humidity | Pressure | Rain* | Wind** | Luminosity | Snow |
|---|---|---|---|---|---|---|---|
| 1777382473 | 22.22° C | 46% | 1011 hPa | 0 mm | - | 0 W/m² | - |
| 1777381873 | 22.22° C | 44% | 1011 hPa | 0 mm | - | 0 W/m² | - |
| 1777381273 | 22.22° C | 44% | 1011.1 hPa | 0 mm | - | 0 W/m² | - |
| 1777380673 | 22.78° C | 44% | 1011.2 hPa | 0 mm | - | 0 W/m² | - |
| 1777380073 | 22.78° C | 45% | 1011.2 hPa | 0 mm | - | 0 W/m² | - |
| 1777379473 | 22.78° C | 47% | 1011.4 hPa | 0 mm | - | 0 W/m² | - |
| 1777378873 | 21.67° C | 47% | 1011.5 hPa | 0 mm | - | 0 W/m² | - |
| 1777378273 | 21.67° C | 48% | 1011.6 hPa | 0 mm | - | 0 W/m² | - |
| 1777377672 | 21.11° C | 48% | 1011.7 hPa | 0 mm | - | 0 W/m² | - |
| 1777377072 | 20.56° C | 48% | 1011.9 hPa | 0 mm | - | 0 W/m² | - |
| 1777376472 | 20.56° C | 47% | 1011.9 hPa | 0 mm | - | 0 W/m² | - |
| 1777375872 | 20° C | 52% | 1012.1 hPa | 0 mm | - | 0 W/m² | - |
| 1777375272 | 20° C | 52% | 1012.2 hPa | 0 mm | - | 0 W/m² | - |
| 1777374672 | 19.44° C | 54% | 1012.2 hPa | 0 mm | - | 0 W/m² | - |
| 1777374072 | 18.89° C | 54% | 1012.3 hPa | 0 mm | - | 0 W/m² | - |
| 1777373472 | 18.33° C | 54% | 1012.5 hPa | 0 mm | - | 0 W/m² | - |
| 1777372872 | 18.33° C | 54% | 1012.6 hPa | 0 mm | - | 0 W/m² | - |
| 1777372272 | 17.78° C | 58% | 1012.7 hPa | 0 mm | - | 0 W/m² | - |
| 1777371672 | 17.22° C | 55% | 1012.8 hPa | 0 mm | - | 0 W/m² | - |
| 1777371072 | 17.22° C | 56% | 1012.8 hPa | 0 mm | - | 0 W/m² | - |
| 1777370472 | 16.67° C | 58% | 1012.8 hPa | 0 mm | - | 0 W/m² | - |
| 1777369871 | 16.67° C | 58% | 1012.9 hPa | 0 mm | - | 0 W/m² | - |
| 1777369272 | 16.67° C | 59% | 1012.9 hPa | 0 mm | - | 0 W/m² | - |
| 1777368671 | 16.11° C | 57% | 1013 hPa | 0 mm | - | 0 W/m² | - |
| 1777368071 | 16.11° C | 61% | 1012.9 hPa | 0 mm | - | 0 W/m² | - |
* Rain latest hour (hover to see other rain measurements)
** Current wind speed in m/s (hover to see current wind gust speed)